Wind_Speed
14 15 16 16 16 18 19 18 18 16 16 15 15 15 14 14 14 14 15 14 14 14 14 15 16 16 17 17 18 19 20 21 22 23 23 24 25 27 28 29 29 31 32 32
16 17 18 17 17 18 18 18 19 19 19 18 17 17 17 17 17 17 17 16 16 15 15 16 16 16 17 18 20 20 21 23 24 25 26 27 28 29 30 31 32 33 34 35
18 19 20 19 18 19 19 19 19 20 20 19 19 19 20 20 19 19 19 19 19 19 18 18 18 18 20 21 23 24 25 26 27 28 29 30 31 32 33 34 35 36 36 37
20 21 22 20 19 20 20 20 20 21 21 21 21 21 21 21 21 23 21 20 20 20 20 20 21 22 23 24 25 26 28 28 29 31 32 34 34 35 36 37 38 38 39 40
21 22 22 20 20 21 21 21 21 21 21 20 21 22 21 21 22 24 23 23 22 22 22 22 23 24 26 27 29 30 31 31 32 34 35 37 38 39 40 41 41 42 43 44
22 23 22 20 20 20 21 21 21 21 20 20 20 20 19 20 21 21 23 24 23 24 24 25 26 27 28 30 31 32 34 35 35 37 38 40 41 43 44 44 45 46 47 48
21 21 20 20 20 20 21 20 20 21 20 20 20 18 18 18 18 19 20 22 23 25 25 27 28 30 31 32 34 35 36 37 38 40 41 43 45 46 47 49 50 50 51 52
21 21 21 20 20 20 21 21 21 21 20 20 20 18 17 18 18 18 19 22 24 26 27 29 30 32 33 35 36 38 39 41 42 43 45 46 48 49 50 52 53 53 54 54
21 21 21 20 20 20 20 21 21 21 21 21 20 18 17 18 20 20 22 24 25 27 29 30 32 33 35 37 38 40 41 43 44 45 47 48 50 51 53 54 55 56 57 58
22 22 21 21 21 21 22 23 22 22 20 19 20 20 21 22 22 23 25 26 28 29 31 32 34 36 37 39 40 42 43 45 46 47 49 51 53 54 56 57 59 60 61 62
24 23 23 22 23 23 23 23 23 22 21 21 22 22 23 23 24 25 27 29 30 32 33 34 36 37 39 41 42 44 46 47 49 50 52 54 55 57 59 61 63 64 65 66
25 25 24 24 24 24 24 24 24 22 22 22 23 23 23 24 25 27 29 30 32 33 35 36 38 40 42 44 45 47 48 50 52 54 55 57 59 61 62 64 66 67 69 69
25 25 25 25 25 25 25 24 23 23 23 24 25 25 26 27 28 29 31 32 34 35 37 39 41 43 45 46 48 50 52 54 55 57 59 61 62 63 64 65 67 68 70 71
25 25 25 25 25 26 26 25 24 24 25 26 26 27 27 29 30 31 33 35 37 38 40 42 44 46 48 50 52 54 55 57 59 60 62 63 64 66 67 67 67 67 69 70
25 25 26 26 26 27 27 27 26 27 28 28 28 28 28 30 32 34 36 38 40 42 44 46 48 50 52 54 55 57 58 60 61 62 63 64 65 66 66 67 67 67 67 67
25 25 27 28 28 27 28 28 28 28 28 27 28 29 31 33 35 37 40 42 44 46 48 50 51 53 55 57 58 59 60 61 62 62 63 63 63 64 64 64 63 62 62 61
25 26 27 27 26 26 26 25 25 26 27 29 30 33 35 37 39 42 44 46 48 49 51 53 54 56 58 59 59 60 60 60 60 60 60 60 60 59 59 58 58 57 55 54
26 26 24 23 22 22 23 24 25 28 31 33 35 37 39 42 44 46 47 49 51 52 54 55 56 57 58 58 58 58 57 57 57 57 56 56 56 55 55 54 53 51 49 47
25 24 23 22 23 24 25 27 29 32 34 36 39 41 43 45 47 49 50 52 53 54 55 56 56 56 55 55 55 54 54 54 54 54 54 53 52 52 51 50 47 45 43 40
25 24 23 24 25 27 29 32 34 36 38 40 42 44 46 48 49 51 52 54 55 55 55 54 54 53 52 51 51 51 51 51 51 50 50 49 48 47 47 45 43 40 37 33
26 27 28 29 31 33 35 36 37 39 40 43 45 46 48 49 51 52 52 53 53 53 52 51 50 49 48 48 48 48 48 48 47 47 47 46 45 44 41 39 36 33 29 26
30 31 32 34 35 36 38 39 40 42 44 46 47 49 50 50 51 51 51 51 50 49 47 46 46 45 44 45 45 45 45 45 45 45 44 43 40 37 34 31 29 25 21 18
32 33 35 37 38 40 41 42 44 45 47 48 49 50 50 50 49 49 47 46 45 44 43 42 42 41 41 42 42 43 43 43 42 40 38 35 32 29 26 23 20 16 13 11
35 37 38 40 42 43 44 45 46 47 48 49 49 49 48 47 46 44 43 41 40 39 38 38 37 37 39 40 40 41 40 38 36 33 30 27 25 21 18 15 12 10 9 8
39 41 42 43 44 44 45 46 47 47 47 46 46 45 44 42 41 39 38 36 35 35 34 34 35 36 37 38 38 37 34 32 29 26 24 21 18 15 13 11 10 9 8 8
41 42 43 44 44 45 45 45 45 44 44 43 42 40 39 37 36 35 33 32 32 31 31 32 34 35 36 35 33 31 28 25 23 21 18 15 13 12 11 10 10 10 9 8
41 42 42 43 43 43 43 43 42 41 40 38 37 36 34 33 31 30 29 28 28 29 30 31 32 33 33 30 28 25 22 20 18 17 14 13 11 10 10 10 10 10 9 9
Wind_Direction
276 279 285 292 296 298 296 291 287 287 281 276 271 272 271 269 267 267 266 263 263 265 265 261 258 258 260 262 264 266 270 272 275 277 280 282 284 286 288 290 291 292 293 294
277 281 284 287 293 298 298 294 289 285 283 278 274 275 272 271 269 269 266 262 262 266 266 264 264 266 268 269 271 272 275 277 279 281 282 284 286 288 289 290 291 291 293 293
278 282 285 289 295 296 297 296 293 287 284 280 275 274 273 267 267 264 262 262 262 263 265 267 270 273 275 276 278 278 280 281 283 284 286 286 287 289 290 290 290 291 292 292
278 280 283 292 292 290 292 294 292 289 284 280 278 277 273 266 267 264 256 256 260 261 263 267 272 275 278 281 281 282 284 285 286 287 288 288 288 289 289 288 290 291 291 291
279 283 287 288 287 287 288 290 290 288 285 282 283 278 272 265 263 260 253 253 256 259 262 269 274 277 280 283 283 285 285 286 287 287 287 287 287 288 288 288 289 289 290 291
278 282 286 288 286 286 287 287 288 286 286 284 281 276 273 267 260 258 255 253 256 261 264 269 274 276 279 281 282 283 284 285 286 287 287 286 286 286 287 287 288 288 289 290
275 280 284 287 286 286 286 289 288 287 284 281 276 275 274 271 264 262 264 262 265 267 269 273 277 279 280 282 283 284 284 285 285 285 285 285 285 285 286 286 286 287 288 289
273 278 283 285 285 286 286 288 289 289 285 279 273 275 276 274 272 272 271 271 271 272 275 277 279 280 281 282 283 284 284 284 284 284 284 284 284 285 285 285 286 286 286 287
273 278 281 282 283 284 286 287 287 287 286 279 273 273 272 272 273 275 276 276 278 279 279 280 281 282 283 284 284 285 285 285 285 285 285 285 285 285 285 286 286 286 286 286
272 276 278 280 283 284 283 284 287 285 278 272 271 271 270 270 272 276 279 281 283 284 284 285 285 285 286 286 286 287 287 287 287 287 287 287 287 287 287 287 287 286 286 286
274 274 276 279 282 283 283 283 282 283 277 275 270 273 274 275 279 282 284 285 286 287 288 288 288 289 289 289 289 289 289 289 289 289 289 288 288 288 288 287 287 286 286 285
274 275 276 278 280 281 280 280 280 280 278 276 279 281 281 283 284 285 287 287 288 289 289 290 290 291 291 291 292 292 291 291 291 290 290 289 289 288 288 288 287 287 286 285
272 274 275 276 277 279 277 278 279 280 280 279 283 287 287 287 287 288 289 290 291 291 292 292 292 293 293 294 294 293 293 292 292 291 291 290 290 289 288 287 287 286 286 285
272 273 274 274 274 274 273 274 277 277 279 282 284 285 287 288 289 290 291 292 293 293 294 294 295 295 295 295 295 295 295 294 294 293 292 292 291 290 289 288 287 286 286 286
271 272 272 271 270 271 272 273 275 278 280 281 282 284 287 289 291 292 293 294 295 296 297 297 297 298 298 297 297 297 297 297 296 295 295 294 293 293 292 291 290 289 288 287
269 268 269 269 269 270 272 273 275 277 279 281 284 287 290 292 294 296 297 297 298 299 299 299 299 299 299 299 300 299 299 299 298 297 297 296 296 295 295 295 294 293 292 291
268 269 272 271 270 270 271 274 277 280 283 286 289 291 293 295 297 298 299 300 300 300 300 301 301 301 301 301 301 301 301 301 300 300 300 300 299 299 299 298 297 296 295 294
272 276 278 279 276 275 275 277 280 284 287 289 291 294 296 297 299 299 300 300 301 302 302 303 303 303 304 304 303 303 303 303 303 303 303 303 303 302 302 301 300 300 299 297
281 282 283 282 280 280 279 281 285 287 289 291 294 296 297 298 299 300 301 302 303 304 304 305 305 305 305 305 305 304 305 305 305 305 305 305 305 305 304 304 302 301 301 299
279 277 276 278 281 281 282 284 286 288 291 292 295 297 299 300 301 303 304 304 305 306 306 306 306 306 306 306 306 306 307 307 307 307 307 307 307 307 306 305 304 303 302 300
275 275 276 279 282 284 286 287 289 291 293 296 298 300 302 303 304 305 306 306 306 306 306 306 307 307 307 308 308 309 309 309 310 310 310 310 310 309 308 308 308 307 304 302
278 279 279 282 285 287 289 292 294 296 299 301 302 304 305 305 306 306 306 306 306 306 306 307 307 308 309 310 310 311 312 312 312 312 312 312 313 312 312 312 312 311 310 309
277 279 281 284 288 292 294 296 298 300 302 303 305 305 306 307 307 307 306 306 306 307 307 308 309 309 311 312 313 314 315 315 316 316 317 318 318 319 320 321 322 322 323 322
279 282 285 288 292 295 297 299 300 302 303 304 305 306 307 307 307 307 306 306 307 307 308 309 311 312 313 315 316 317 318 320 321 323 324 326 328 330 335 340 344 349 352 351
283 286 289 292 294 296 298 299 301 302 303 304 305 306 306 306 306 306 307 307 308 308 310 311 313 315 317 318 319 320 322 324 327 329 332 335 340 347 354 3 11 13 12 12
286 289 291 293 295 297 298 299 301 302 303 304 304 305 305 305 305 305 306 307 308 310 311 314 316 317 320 322 323 325 327 330 334 338 343 349 357 6 14 18 18 20 24 26
289 291 293 295 296 298 299 300 301 302 303 304 304 304 305 305 305 305 305 306 308 311 314 316 318 320 323 325 328 331 334 337 342 347 353 359 4 10 15 19 21 24 28 28
Height
5842 5841 5840 5840 5839 5838 5838 5837 5837 5838 5837 5838 5838 5838 5838 5838 5838 5838 5837 5837 5836 5836 5835 5835 5835 5834 5834 5833 5833 5832 5831 5830 5829 5828 5827 5825 5823 5822 5820 5818 5817 5815 5813 5811
5837 5836 5835 5835 5835 5834 5833 5833 5832 5832 5833 5833 5833 5834 5834 5833 5833 5833 5833 5833 5832 5831 5831 5831 5830 5829 5829 5828 5827 5826 5825 5824 5822 5821 5819 5817 5815 5813 5812 5810 5808 5806 5804 5802
5832 5831 5830 5831 5831 5830 5829 5828 5828 5827 5828 5827 5827 5828 5828 5828 5828 5827 5827 5827 5827 5826 5826 5825 5825 5824 5823 5822 5820 5819 5818 5816 5814 5813 5811 5809 5807 5805 5803 5801 5799 5797 5795 5793
5826 5827 5826 5829 5826 5825 5824 5823 5822 5822 5821 5821 5821 5821 5821 5821 5821 5821 5821 5821 5821 5820 5820 5819 5818 5817 5816 5815 5813 5812 5810 5808 5806 5804 5802 5800 5798 5796 5794 5791 5789 5787 5785 5782
5820 5820 5820 5821 5820 5819 5819 5818 5817 5816 5815 5815 5814 5814 5813 5813 5813 5813 5813 5813 5813 5813 5813 5812 5811 5810 5808 5807 5805 5803 5801 5799 5797 5795 5793 5791 5788 5786 5783 5780 5778 5776 5773 5771
5815 5814 5814 5816 5814 5813 5813 5812 5811 5810 5809 5808 5808 5807 5807 5806 5805 5806 5806 5805 5806 5806 5805 5805 5804 5802 5801 5799 5797 5795 5793 5790 5788 5786 5783 5781 5778 5775 5772 5769 5766 5764 5761 5758
5809 5808 5808 5809 5807 5807 5808 5807 5805 5804 5802 5802 5801 5801 5800 5799 5798 5798 5798 5798 5798 5798 5797 5796 5795 5793 5792 5789 5787 5785 5783 5780 5778 5775 5772 5769 5766 5763 5760 5757 5754 5750 5748 5745
5803 5803 5805 5803 5802 5802 5801 5799 5798 5797 5796 5795 5795 5794 5794 5793 5792 5792 5791 5791 5790 5789 5788 5787 5786 5784 5782 5779 5777 5775 5772 5769 5766 5763 5760 5757 5754 5750 5747 5743 5740 5736 5733 5730
5798 5799 5798 5796 5796 5795 5794 5793 5792 5791 5790 5789 5788 5788 5787 5787 5786 5786 5785 5784 5783 5781 5780 5778 5776 5774 5771 5769 5766 5763 5760 5757 5754 5750 5747 5743 5740 5736 5732 5728 5724 5720 5717 5714
5791 5791 5790 5790 5789 5788 5787 5786 5785 5784 5783 5782 5782 5781 5781 5780 5779 5778 5777 5776 5774 5772 5770 5768 5765 5763 5760 5757 5754 5751 5748 5744 5741 5737 5733 5729 5724 5720 5716 5711 5707 5703 5699 5695
5783 5784 5784 5783 5783 5782 5780 5780 5779 5777 5776 5775 5775 5774 5773 5772 5771 5770 5768 5767 5764 5762 5760 5757 5754 5751 5748 5745 5742 5738 5734 5730 5726 5722 5718 5713 5708 5703 5698 5694 5688 5684 5679 5675
5777 5777 5777 5776 5776 5775 5774 5772 5771 5770 5769 5768 5767 5766 5766 5765 5763 5762 5760 5758 5755 5752 5750 5747 5743 5740 5737 5733 5729 5725 5721 5716 5711 5707 5702 5696 5691 5686 5680 5674 5669 5662 5656 5652
5769 5769 5769 5768 5768 5767 5766 5765 5764 5763 5762 5761 5760 5759 5758 5757 5755 5753 5750 5748 5745 5742 5739 5736 5732 5728 5724 5720 5715 5711 5706 5701 5695 5689 5684 5678 5672 5667 5662 5656 5648 5641 5634 5628
5761 5761 5761 5761 5760 5760 5759 5758 5756 5756 5755 5753 5752 5751 5750 5748 5746 5743 5741 5738 5735 5731 5728 5724 5720 5715 5710 5705 5700 5695 5689 5683 5677 5671 5664 5658 5651 5645 5638 5633 5628 5622 5614 5606
5754 5754 5753 5753 5752 5751 5751 5750 5749 5748 5747 5746 5744 5743 5741 5739 5736 5733 5730 5727 5723 5719 5715 5710 5706 5701 5695 5690 5684 5677 5671 5664 5658 5651 5644 5637 5630 5622 5615 5609 5603 5597 5591 5585
5746 5746 5746 5745 5744 5743 5742 5742 5741 5740 5738 5737 5735 5733 5731 5729 5726 5722 5719 5715 5711 5706 5701 5696 5691 5685 5679 5673 5666 5659 5652 5645 5638 5630 5623 5615 5608 5601 5593 5586 5579 5573 5567 5561
5739 5738 5738 5737 5736 5735 5734 5733 5732 5731 5729 5728 5726 5723 5721 5718 5714 5710 5706 5702 5697 5692 5687 5681 5675 5668 5662 5655 5648 5641 5633 5625 5618 5610 5603 5595 5588 5580 5573 5566 5559 5553 5547 5540
5731 5731 5730 5729 5728 5727 5726 5725 5724 5722 5720 5718 5715 5713 5709 5706 5702 5697 5693 5688 5683 5677 5671 5664 5658 5651 5644 5637 5630 5622 5615 5607 5600 5592 5585 5577 5570 5562 5555 5548 5541 5535 5529 5523
5724 5723 5722 5721 5720 5719 5718 5716 5714 5712 5710 5707 5704 5701 5697 5693 5689 5684 5679 5673 5667 5661 5655 5648 5641 5634 5627 5620 5613 5605 5598 5591 5584 5576 5569 5562 5554 5547 5539 5532 5526 5520 5515 5510
5716 5715 5714 5713 5712 5710 5709 5707 5705 5702 5699 5696 5693 5689 5684 5679 5674 5669 5663 5657 5651 5645 5639 5632 5625 5618 5612 5605 5598 5591 5584 5577 5570 5562 5555 5547 5540 5533 5526 5519 5513 5507 5502 5498
5708 5707 5706 5704 5703 5701 5699 5697 5694 5691 5688 5684 5680 5676 5671 5665 5660 5654 5648 5642 5636 5630 5623 5617 5611 5604 5598 5592 5585 5578 5571 5564 5557 5549 5542 5535 5528 5521 5514 5508 5502 5497 5493 5489
5699 5697 5696 5694 5692 5690 5688 5685 5682 5679 5675 5671 5666 5662 5657 5651 5646 5640 5634 5628 5622 5616 5610 5604 5598 5592 5586 5580 5574 5567 5560 5552 5545 5538 5530 5523 5516 5510 5504 5499 5494 5489 5486 5483
5689 5687 5686 5683 5681 5678 5676 5672 5669 5666 5662 5657 5653 5648 5643 5637 5631 5626 5621 5615 5609 5604 5599 5593 5588 5582 5576 5570 5564 5557 5550 5542 5535 5527 5520 5514 5508 5502 5497 5493 5488 5485 5482 5481
5679 5677 5675 5673 5670 5667 5664 5660 5657 5653 5649 5644 5639 5634 5629 5624 5619 5613 5608 5603 5599 5594 5589 5584 5578 5573 5567 5561 5554 5548 5540 5533 5526 5520 5513 5508 5503 5498 5494 5490 5487 5485 5483 5481
5669 5667 5664 5662 5659 5655 5652 5649 5645 5641 5636 5631 5626 5622 5617 5612 5607 5603 5598 5594 5589 5585 5580 5576 5571 5565 5559 5553 5546 5539 5533 5527 5521 5515 5510 5505 5501 5497 5494 5491 5488 5486 5485 5483
5658 5656 5653 5650 5647 5644 5640 5636 5633 5628 5624 5620 5615 5611 5606 5602 5597 5593 5589 5586 5582 5577 5573 5568 5563 5558 5552 5545 5539 5533 5527 5522 5517 5512 5508 5504 5501 5498 5495 5493 5491 5489 5487 5485
5647 5644 5641 5638 5635 5631 5628 5624 5620 5616 5612 5609 5605 5600 5596 5593 5589 5585 5582 5578 5575 5571 5566 5562 5557 5551 5545 5539 5534 5529 5524 5519 5515 5511 5508 5505 5502 5499 5497 5495 5493 5491 5489 5488